Hovedside
METAR-TAF:

METAR-TAF

Lufthavner :

Nyslott, Finland

Nyslott lufthavn

breddegrad: 61-57N, lengdegrad: 028-57E, høyde over havet: 95 m

Gjeldene værobservasjon

Denne rapporten ble laget for 13 minutter siden, klokken 21:50 UTC
Vind 5 kt fra Sør-sørvest, skiftende mellom Sør-sørøst og Vest-sørvest
Temperatur 17°C
Luftfuktighet 94%
Trykk 1013 hPa
Sikt 10 km eller mer
Få skyer i en høyde av 1100 ft
Brutte skyer i en høyde av 11000 ft

METAR: EFSA 182150Z AUTO 20005KT 150V250 9999 FEW011 BKN110 17/16 Q1013

Tid: 01:03 (22:03 UTC)


TAF: fraværende

Værobservasjoner og værvarsel for over 4000 flyplasser (METAR- og TAF-rapporter).

Tilgjengelige stasjoner er representert av de røde og gule prikkene på kartet.

Hold musepekeren over prikken for å se navnet på stasjonen.

Klikk så for å se værobservasjoner og -varsler.

For å forandre kartet kan du klikke på den grønne knappen med svart kryss for å zoome inn, på den grønne knappen med strek for å zoome ut, eller på de grønne pilene for å se tilstøtende kart.


METAR-TAF: